[[{"header":{"parameterUnit":"m.s-1","parameterCategory":1,"la1":30.2991,"la2":30.254,"lo1":-89.0895,"lo2":-89.0444,"dy":0.0017,"dx":0.0017,"nx":28,"ny":28,"refTime":"2024-04-02T03:00:00:Z","depth":0,"parameterNumber":2,"parameterNumberName":"U-component_of_WINDS"},"data":[0,0,0,0,0,0,0,0,0,0,0,0,0,0,0,0,0,0,0,0,0,0,0,0,0,0,0,0,0,0,0,0,0,0,0,0,0,0,0,0,0,0,0,0,0,0,0,0,0,0,0,0,0,0,0,0,0,0,-1.2222,-1.2222,0,-1.2189,-1.2189,-1.2188,-1.2161,-1.216,-1.216,-1.216,-1.2126,-1.2125,-1.2124,0,0,0,0,0,0,0,0,0,0,0,0,0,-1.226,-1.226,-1.2222,-1.2222,-1.2221,-1.2189,-1.2189,-1.2188,-1.2161,-1.216,-1.216,-1.216,-1.2126,-1.2125,-1.2124,0,0,0,0,0,0,0,0,0,0,0,0,0,-1.2237,-1.226,-1.2222,-1.2204,-1.2202,-1.2189,-1.2189,-1.2188,-1.2161,-1.216,-1.216,-1.216,-1.2126,-1.2125,-1.2124,-1.2127,0,0,-1.2121,-1.2121,0,0,0,0,0,0,0,0,-1.2239,-1.2236,-1.2207,-1.2205,-1.2203,-1.2179,-1.2189,-1.2167,-1.2161,-1.2176,-1.216,-1.2159,-1.2143,-1.2141,-1.2136,-1.2125,-1.2124,-1.2121,-1.212,-1.212,-1.212,0,0,0,0,0,0,0,-1.224,-1.2237,-1.2209,-1.2206,-1.2204,-1.2197,-1.2193,-1.2185,-1.2163,-1.2175,-1.2173,-1.2169,-1.2142,-1.2137,-1.2135,-1.2123,-1.2121,-1.212,-1.212,-1.2119,-1.2112,-1.2112,0,0,0,0,0,0,-1.2245,-1.2239,-1.221,-1.2208,-1.222,-1.2196,-1.2192,-1.2187,-1.2163,-1.2159,-1.217,-1.2168,-1.2139,-1.2136,-1.2133,-1.2134,-1.212,-1.2119,-1.2119,-1.2112,-1.2112,-1.2113,0,0,0,0,0,0,-1.2246,-1.2243,-1.2211,-1.2223,-1.2218,-1.2196,-1.219,-1.2186,-1.2181,-1.2159,-1.2155,-1.2168,-1.2138,-1.2135,-1.2128,-1.2133,-1.2119,-1.2118,-1.2111,-1.2112,-1.2112,-1.2136,0,0,0,0,0,0,-1.2247,-1.2243,-1.2244,-1.2223,-1.2218,-1.2207,-1.2191,-1.2186,-1.2179,-1.2177,-1.2156,-1.2153,-1.2138,-1.213,-1.2128,-1.2131,-1.2117,-1.2111,-1.2111,-1.2112,-1.2135,-1.2137,-1.214,0,0,0,0,0,-1.2248,-1.2252,-1.2244,-1.2241,-1.2219,-1.2208,-1.2204,-1.2187,-1.218,-1.218,-1.2166,-1.2153,-1.2133,-1.213,-1.2127,-1.213,-1.211,-1.2111,-1.2112,-1.2134,-1.2137,-1.214,0,0,0,0,0,0,-1.2274,-1.2249,-1.224,-1.2237,-1.2225,-1.2203,-1.2203,-1.2191,-1.2181,-1.2179,-1.2158,-1.2153,-1.2149,-1.2139,-1.2136,-1.2131,-1.212,-1.212,-1.2137,-1.214,-1.2142,-1.2145,-1.2116,0,0,0,0,0,-1.228,-1.2273,-1.2251,-1.2251,-1.2245,-1.2225,-1.222,-1.2208,-1.2194,-1.2188,-1.2174,-1.2161,-1.2151,-1.2145,-1.2135,-1.2133,-1.2128,-1.2134,-1.2137,-1.2139,-1.2139,-1.2136,-1.2138,-1.2115,-1.2115,-1.2115,0,0,-1.2291,-1.2276,-1.2273,-1.2256,-1.2245,-1.2238,-1.2221,-1.2215,-1.2209,-1.2187,-1.218,-1.2169,-1.2153,-1.2149,-1.2146,-1.214,-1.2144,-1.214,-1.2142,-1.2141,-1.2137,-1.2139,-1.2141,-1.2116,-1.2116,-1.2116,0,0,-1.2307,-1.2296,-1.2294,-1.2283,-1.2266,-1.2253,-1.2253,-1.2232,-1.2224,-1.2217,-1.22,-1.2193,-1.2177,-1.2166,-1.2158,-1.217,-1.2157,-1.2168,-1.218,-1.2177,-1.2179,-1.218,-1.2183,-1.2185,-1.2168,-1.2168,-1.2168,0,-1.2323,-1.2312,-1.2294,-1.2288,-1.2281,-1.2261,-1.2258,-1.2248,-1.2229,-1.2224,-1.2218,-1.2197,-1.2185,-1.2177,-1.218,-1.2175,-1.2173,-1.2169,-1.218,-1.2181,-1.2183,-1.2185,-1.2187,-1.2169,-1.2169,-1.2169,-1.2169,0,-1.2331,-1.2324,-1.2324,-1.2306,-1.2299,-1.2295,-1.2276,-1.227,-1.2259,-1.2246,-1.2238,-1.2223,-1.2209,-1.2207,-1.2196,-1.2197,-1.2194,-1.2184,-1.2173,-1.2186,-1.2188,-1.2189,-1.2171,-1.2171,-1.217,-1.217,0,0,-1.2363,-1.2335,-1.2335,-1.2326,-1.2306,-1.23,-1.2295,-1.2281,-1.2276,-1.2264,-1.2258,-1.2245,-1.2236,-1.2228,-1.2215,-1.2213,-1.2222,-1.2203,-1.2203,-1.2206,-1.2221,-1.2228,-1.2229,-1.2214,-1.2214,-1.2214,-1.2222,0,-1.2375,-1.2364,-1.2348,-1.2342,-1.2335,-1.2316,-1.2311,-1.2298,-1.2286,-1.2278,-1.2264,-1.2255,-1.2244,-1.2239,-1.2236,-1.2221,-1.2224,-1.2221,-1.2207,-1.2207,-1.2211,-1.2231,-1.2238,-1.2246,-1.2223,-1.2223,-1.2223,0,-1.2388,-1.2376,-1.237,-1.235,-1.2346,-1.2342,-1.2328,-1.232,-1.2305,-1.2296,-1.2286,-1.2273,-1.2265,-1.2256,-1.2245,-1.2243,-1.2237,-1.2229,-1.2229,-1.2226,-1.2215,-1.2227,-1.2249,-1.2249,-1.2225,-1.2225,-1.2224,0,-1.2409,-1.2392,-1.2386,-1.2379,-1.2356,-1.2354,-1.2344,-1.2328,-1.2321,-1.2308,-1.2303,-1.2291,-1.2283,-1.2273,-1.2256,-1.2251,-1.2247,-1.2236,-1.2239,-1.2239,-1.2238,-1.2238,-1.2257,-1.2236,-1.2236,-1.2236,-1.2236,0,-1.2424,-1.2421,-1.2396,-1.2392,-1.2387,-1.2368,-1.2364,-1.2353,-1.2339,-1.2332,-1.2315,-1.2309,-1.2287,-1.2278,-1.2265,-1.2257,-1.2255,-1.2247,-1.2243,-1.2248,-1.2248,-1.2242,-1.2241,-1.2236,-1.2236,-1.2236,-1.2236,0,-1.2447,-1.2431,-1.2422,-1.2401,-1.2396,-1.2393,-1.2374,-1.237,-1.2357,-1.2348,-1.2345,-1.2325,-1.2313,-1.2295,-1.2279,-1.227,-1.2264,-1.2259,-1.2269,-1.2267,-1.227,-1.227,-1.2285,-1.2286,-1.2265,-1.2266,-1.2266,0,-1.2457,-1.2454,-1.2433,-1.2427,-1.2417,-1.2408,-1.2401,-1.2382,-1.2375,-1.2357,-1.2354,-1.2341,-1.233,-1.2313,-1.2296,-1.2283,-1.2276,-1.2283,-1.2274,-1.2279,-1.2275,-1.2275,-1.2274,-1.2285,-1.2285,-1.2285,-1.2285,0,-1.2476,-1.2468,-1.2458,-1.2445,-1.2436,-1.2425,-1.2412,-1.2408,-1.2387,-1.238,-1.2368,-1.2359,-1.2342,-1.2329,-1.2314,-1.2303,-1.229,-1.2288,-1.2288,-1.2292,-1.2298,-1.2294,-1.2274,-1.2288,-1.2288,-1.2287,-1.2287,-1.2287,-1.2492,-1.2488,-1.2472,-1.2461,-1.245,-1.2439,-1.2433,-1.2419,-1.2409,-1.2394,-1.2383,-1.2372,-1.2356,-1.2334,-1.2324,-1.2314,-1.2309,-1.2309,-1.2309,-1.2309,-1.231,-1.23,-1.2312,-1.2312,-1.2312,-1.2312,-1.2311,0,-1.251,-1.2498,-1.2488,-1.2472,-1.2463,-1.2452,-1.2438,-1.2431,-1.2421,-1.2407,-1.2397,-1.2383,-1.237,-1.2353,-1.2339,-1.2334,-1.2328,-1.2331,-1.2331,-1.2328,-1.2316,-1.2317,-1.2336,-1.2336,-1.2336,-1.2336,-1.2336,-1.2336,-1.2517,-1.251,-1.2499,-1.2486,-1.2474,-1.2463,-1.2456,-1.2445,-1.2434,-1.2419,-1.2409,-1.2397,-1.2382,-1.2367,-1.2354,-1.2349,-1.2345,-1.2349,-1.2343,-1.2331,-1.2329,-1.2327,-1.2328,-1.2349,-1.2349,-1.2355,-1.2355,-1.2355]},{"header":{"parameterUnit":"m.s-1","parameterCategory":1,"la1":30.2991,"la2":30.254,"lo1":-89.0895,"lo2":-89.0444,"dy":0.0017,"dx":0.0017,"nx":28,"ny":28,"refTime":"2024-04-02T03:00:00:Z","depth":0,"parameterNumber":3,"parameterNumberName":"V-component_of_WINDS"},"data":[0,0,0,0,0,0,0,0,0,0,0,0,0,0,0,0,0,0,0,0,0,0,0,0,0,0,0,0,0,0,0,0,0,0,0,0,0,0,0,0,0,0,0,0,0,0,0,0,0,0,0,0,0,0,0,0,0,0,2.3092,2.3093,0,2.3214,2.3216,2.3217,2.3279,2.3279,2.3279,2.3279,2.3404,2.3407,2.341,0,0,0,0,0,0,0,0,0,0,0,0,0,2.2912,2.2915,2.3092,2.3093,2.3095,2.3214,2.3216,2.3217,2.3279,2.3279,2.3279,2.3279,2.3403,2.3407,2.3411,0,0,0,0,0,0,0,0,0,0,0,0,0,2.3008,2.2916,2.3091,2.314,2.3146,2.3214,2.3216,2.3218,2.3279,2.3279,2.3279,2.3279,2.3402,2.3406,2.3411,2.344,0,0,2.3426,2.3428,0,0,0,0,0,0,0,0,2.3002,2.3014,2.3131,2.3137,2.3143,2.3232,2.3198,2.3292,2.3279,2.3228,2.3279,2.3279,2.3347,2.3356,2.3379,2.3446,2.3451,2.3427,2.343,2.3432,2.3433,0,0,0,0,0,0,0,2.2996,2.3009,2.314,2.3133,2.314,2.3156,2.317,2.3216,2.3286,2.3233,2.3238,2.3251,2.335,2.3374,2.3382,2.3453,2.3427,2.3431,2.3434,2.3436,2.3552,2.3552,0,0,0,0,0,0,2.2981,2.3003,2.3136,2.3144,2.3072,2.3159,2.3174,2.3203,2.3285,2.3298,2.3251,2.3254,2.3365,2.3376,2.3387,2.3428,2.3432,2.3436,2.3439,2.3552,2.3552,2.3553,0,0,0,0,0,0,2.2977,2.2992,2.3131,2.3075,2.3094,2.3162,2.3194,2.3205,2.323,2.3299,2.3312,2.3263,2.3366,2.338,2.3427,2.3433,2.3439,2.3443,2.3552,2.3552,2.3552,2.3508,0,0,0,0,0,0,2.2972,2.299,2.3002,2.3075,2.3097,2.3169,2.3194,2.3208,2.3238,2.3243,2.3314,2.3325,2.3367,2.3419,2.3432,2.344,2.3447,2.3552,2.3552,2.3552,2.3509,2.3507,2.3504,0,0,0,0,0,2.2965,2.2984,2.3002,2.3018,2.3112,2.3169,2.3182,2.323,2.3238,2.3251,2.3295,2.3323,2.343,2.3424,2.3438,2.3447,2.3552,2.3552,2.3552,2.351,2.3507,2.3504,0,0,0,0,0,0,2.2909,2.2994,2.3015,2.3058,2.3106,2.318,2.3196,2.3224,2.327,2.3273,2.333,2.3345,2.3388,2.3422,2.3414,2.3481,2.3494,2.3497,2.3457,2.3454,2.3452,2.3443,2.3451,0,0,0,0,0,2.2901,2.2941,2.3013,2.3044,2.3067,2.3127,2.3154,2.3187,2.3239,2.3259,2.3307,2.3356,2.3401,2.343,2.3474,2.3514,2.3532,2.3528,2.3526,2.3523,2.3526,2.3551,2.3551,2.3554,2.3554,2.3554,0,0,2.2887,2.2938,2.2959,2.3034,2.3075,2.3115,2.3144,2.3184,2.3215,2.3265,2.3313,2.335,2.3409,2.3453,2.3475,2.3483,2.3529,2.3524,2.3521,2.3525,2.3552,2.3551,2.3551,2.3554,2.3554,2.3554,0,0,2.288,2.2922,2.2954,2.2995,2.3057,2.3097,2.3104,2.3174,2.3201,2.325,2.329,2.3327,2.3402,2.3443,2.3474,2.3485,2.3512,2.3498,2.3485,2.3509,2.3509,2.3509,2.3515,2.3516,2.35,2.3499,2.3499,0,2.2854,2.2915,2.2966,2.3005,2.3038,2.3086,2.3119,2.3156,2.3229,2.325,2.3259,2.3356,2.3399,2.3454,2.3457,2.348,2.3491,2.349,2.3505,2.3506,2.3507,2.3512,2.3514,2.3497,2.3498,2.3498,2.3498,0,2.2881,2.2923,2.2941,2.3011,2.3046,2.3081,2.3138,2.3167,2.3197,2.3237,2.3287,2.334,2.3398,2.3413,2.3442,2.3473,2.3477,2.3494,2.3508,2.3504,2.351,2.3512,2.3494,2.3495,2.3496,2.3496,0,0,2.2841,2.2941,2.2947,2.2981,2.3053,2.3087,2.3125,2.3182,2.3207,2.3256,2.329,2.3354,2.3371,2.3406,2.344,2.3461,2.3469,2.3477,2.3479,2.3475,2.3508,2.3495,2.3496,2.3487,2.3488,2.3488,2.3503,0,2.2846,2.2918,2.2965,2.3018,2.3059,2.3106,2.3139,2.3188,2.3226,2.3266,2.3309,2.3354,2.3372,2.3394,2.3417,2.3463,2.3476,2.3462,2.352,2.3522,2.3505,2.3499,2.3486,2.3497,2.3506,2.3506,2.3507,0,2.2861,2.291,2.2967,2.3037,2.3056,2.3085,2.3143,2.318,2.3236,2.3263,2.3303,2.3338,2.3381,2.3392,2.3452,2.3442,2.3469,2.3495,2.3496,2.3504,2.3514,2.3508,2.3501,2.3503,2.3511,2.351,2.351,0,2.2829,2.2909,2.2954,2.2981,2.3064,2.3083,2.3119,2.3175,2.3207,2.3257,2.3278,2.3332,2.3362,2.3403,2.3452,2.3455,2.3509,2.3522,2.3533,2.3531,2.3542,2.3541,2.3541,2.3557,2.3557,2.3557,2.3557,0,2.283,2.2863,2.2941,2.2968,2.3008,2.3063,2.31,2.3139,2.3189,2.3226,2.327,2.3303,2.3366,2.3407,2.3446,2.3492,2.3504,2.3528,2.3538,2.3524,2.3522,2.3543,2.3544,2.3558,2.3558,2.3558,2.3558,0,2.28,2.2854,2.2906,2.2981,2.3,2.3026,2.309,2.3119,2.316,2.3206,2.322,2.3285,2.3336,2.3389,2.3458,2.3484,2.3529,2.3542,2.351,2.3516,2.3523,2.3522,2.3538,2.3543,2.3554,2.3554,2.3554,0,2.2798,2.2825,2.2903,2.2931,2.2965,2.301,2.3043,2.3098,2.3131,2.3199,2.322,2.3274,2.3321,2.34,2.3453,2.3507,2.3523,2.3524,2.3531,2.3517,2.3524,2.3522,2.3526,2.3522,2.3522,2.3521,2.3521,0,2.2788,2.2814,2.286,2.2916,2.2955,2.3001,2.305,2.307,2.3135,2.317,2.3223,2.3259,2.3331,2.3385,2.3445,2.3481,2.3512,2.3519,2.3524,2.3511,2.3492,2.3504,2.3505,2.3518,2.3518,2.3519,2.3519,2.3519,2.2774,2.2801,2.286,2.2911,2.2953,2.2998,2.3029,2.3075,2.3121,2.3183,2.3213,2.3267,2.3324,2.3408,2.3445,2.3488,2.3496,2.3504,2.3506,2.3507,2.3505,2.3484,2.3498,2.3499,2.3499,2.3499,2.3499,0,2.2768,2.2809,2.2855,2.2922,2.2962,2.2988,2.3043,2.3075,2.3122,2.3173,2.3219,2.328,2.3333,2.3391,2.3448,2.3471,2.3487,2.3484,2.3484,2.3492,2.3493,2.3483,2.3471,2.3471,2.3471,2.3471,2.3471,2.3471,2.2769,2.2817,2.285,2.2919,2.296,2.3014,2.3043,2.3085,2.3126,2.3194,2.3238,2.3276,2.333,2.3391,2.3441,2.3457,2.3476,2.347,2.349,2.3489,2.3492,2.3494,2.3485,2.3473,2.3473,2.3486,2.3486,2.3486]}]]